Location: La Pernelle
(49.6188°N, 1.2999°W)
Time: 12:33:56
(UTC+00:00)

Cosmos 1954 Rocket - Pass Details

Date: 01 November 2021
Orbit: 751 x 782 km, 74.0° (Epoch: 26 November)

Event Time Altitude Azimuth Distance (km) Brightness Sun altitude
Rises 20:10:26 0° 320° (NW) 3,252 8.0 -33.8°
Reaches altitude 10° 20:14:03 10° 295° (WNW) 2,325 7.3 -34.4°
Maximum altitude 20:16:29 13° 267° (W) 2,097 6.9 -34.7°
Drops below altitude 10° 20:18:55 10° 240° (WSW) 2,325 6.9 -35.1°
Sets 20:22:33 0° 214° (SW) 3,251 7.4 -35.7°
